Radiation Dose at Monitoring Post of Fukushima Daini Nuclear Power Station
Date,Time,MP-1(microSv/h),MP-2(microSv/h),MP-3(microSv/h),MP-4(microSv/h),MP-5(microSv/h),MP-6(microSv/h),MP-7(microSv/h),Wind Direction,Wind Velocity(m/s),Rain
2023/09/24,00:00,0.145,0.130,0.213,0.200,0.207,0.117,0.075,northwest,7.2,No
2023/09/24,00:10,0.146,0.130,0.212,0.200,0.208,0.116,0.075,north-northwest,7.9,No
2023/09/24,00:20,0.145,0.129,0.212,0.202,0.208,0.116,0.075,north-northwest,7.9,No
2023/09/24,00:30,0.146,0.129,0.211,0.200,0.207,0.118,0.075,north-northwest,7.9,No
2023/09/24,00:40,0.146,0.129,0.213,0.201,0.206,0.116,0.075,north-northwest,7.2,No
2023/09/24,00:50,0.145,0.129,0.212,0.199,0.208,0.117,0.075,north-northwest,7.2,No
2023/09/24,01:00,0.146,0.130,0.213,0.201,0.206,0.116,0.075,north-northwest,6.7,No
2023/09/24,01:10,0.144,0.130,0.212,0.199,0.207,0.117,0.075,north-northwest,7.3,No
2023/09/24,01:20,0.144,0.129,0.212,0.203,0.206,0.117,0.075,north-northwest,7.6,No
2023/09/24,01:30,0.145,0.129,0.213,0.200,0.207,0.118,0.075,north-northwest,7.8,No
2023/09/24,01:40,0.146,0.129,0.210,0.202,0.207,0.117,0.076,north-northwest,7.7,No
2023/09/24,01:50,0.144,0.130,0.212,0.200,0.209,0.117,0.075,north-northwest,7.1,No
2023/09/24,02:00,0.147,0.129,0.212,0.200,0.207,0.117,0.075,north-northwest,7.8,No
2023/09/24,02:10,0.145,0.130,0.212,0.199,0.208,0.117,0.075,north-northwest,7.5,No
2023/09/24,02:20,0.146,0.130,0.212,0.202,0.207,0.116,0.075,northwest,8.5,No
2023/09/24,02:30,0.144,0.130,0.213,0.201,0.209,0.118,0.075,north-northwest,8.1,No
2023/09/24,02:40,0.146,0.130,0.213,0.201,0.206,0.117,0.076,northwest,8.5,No
2023/09/24,02:50,0.144,0.130,0.213,0.200,0.208,0.118,0.076,north-northwest,9.0,No
2023/09/24,03:00,0.146,0.130,0.213,0.200,0.207,0.117,0.076,north-northwest,9.5,No
2023/09/24,03:10,0.145,0.130,0.212,0.201,0.209,0.117,0.075,north-northwest,8.3,No
2023/09/24,03:20,0.146,0.130,0.212,0.199,0.207,0.117,0.076,north-northwest,7.7,No
2023/09/24,03:30,0.145,0.130,0.211,0.201,0.208,0.117,0.075,northwest,7.6,No
2023/09/24,03:40,0.146,0.130,0.213,0.200,0.207,0.117,0.076,north-northwest,8.4,No
2023/09/24,03:50,0.146,0.130,0.211,0.202,0.209,0.119,0.076,north-northwest,8.4,No
2023/09/24,04:00,0.147,0.130,0.212,0.199,0.207,0.117,0.075,north-northwest,8.1,No
2023/09/24,04:10,0.145,0.130,0.213,0.201,0.209,0.117,0.075,northwest,8.5,No
2023/09/24,04:20,0.147,0.130,0.212,0.202,0.207,0.117,0.075,north-northwest,8.7,No
2023/09/24,04:30,0.145,0.130,0.212,0.201,0.208,0.118,0.076,north-northwest,8.5,No
2023/09/24,04:40,0.146,0.130,0.212,0.201,0.207,0.116,0.076,northwest,8.3,No
2023/09/24,04:50,0.145,0.130,0.213,0.201,0.209,0.117,0.075,northwest,8.2,No
2023/09/24,05:00,0.147,0.130,0.212,0.202,0.207,0.117,0.076,northwest,9.0,No
2023/09/24,05:10,0.145,0.130,0.213,0.201,0.208,0.117,0.076,north-northwest,8.5,No
2023/09/24,05:20,0.146,0.131,0.213,0.201,0.208,0.117,0.075,north-northwest,8.3,No
2023/09/24,05:30,0.146,0.129,0.213,0.200,0.207,0.118,0.075,north-northwest,7.8,No
2023/09/24,05:40,0.146,0.131,0.213,0.201,0.208,0.118,0.076,north-northwest,7.8,No
2023/09/24,05:50,0.145,0.130,0.212,0.200,0.207,0.117,0.075,north-northwest,8.1,No
2023/09/24,06:00,0.146,0.131,0.213,0.200,0.208,0.118,0.076,north-northwest,7.6,No
2023/09/24,06:10,0.146,0.129,0.212,0.201,0.208,0.117,0.075,north-northwest,8.1,No
2023/09/24,06:20,0.146,0.130,0.213,0.201,0.209,0.117,0.076,north-northwest,8.5,No
2023/09/24,06:30,0.145,0.130,0.212,0.200,0.207,0.117,0.076,north-northwest,8.2,No
2023/09/24,06:40,0.146,0.130,0.214,0.202,0.208,0.117,0.076,north-northwest,8.1,No
2023/09/24,06:50,0.145,0.131,0.211,0.200,0.208,0.117,0.075,north-northwest,7.9,No
2023/09/24,07:00,0.146,0.130,0.213,0.201,0.208,0.117,0.076,north-northwest,7.5,No
2023/09/24,07:10,0.145,0.130,0.212,0.201,0.206,0.117,0.075,north-northwest,7.9,No
2023/09/24,07:20,0.146,0.130,0.214,0.201,0.208,0.117,0.075,north-northwest,8.1,No
2023/09/24,07:30,0.146,0.130,0.213,0.200,0.207,0.117,0.075,northwest,7.5,No
2023/09/24,07:40,0.145,0.130,0.213,0.201,0.209,0.118,0.075,north-northwest,7.8,No
2023/09/24,07:50,0.146,0.130,0.213,0.200,0.207,0.118,0.076,north-northwest,8.1,No
2023/09/24,08:00,0.145,0.130,0.213,0.201,0.208,0.117,0.075,north-northwest,6.0,No
2023/09/24,08:10,0.146,0.130,0.213,0.199,0.208,0.117,0.076,north-northwest,7.2,No
2023/09/24,08:20,0.146,0.130,0.213,0.202,0.206,0.117,0.075,north-northwest,7.1,No
2023/09/24,08:30,0.147,0.130,0.211,0.201,0.208,0.118,0.075,northwest,6.0,No
2023/09/24,08:40,0.145,0.130,0.212,0.199,0.206,0.117,0.076,north-northwest,5.3,No
2023/09/24,08:50,0.145,0.130,0.212,0.201,0.206,0.118,0.075,north-northwest,6.4,No
2023/09/24,09:00,0.147,0.129,0.210,0.200,0.207,0.117,0.075,north-northwest,4.3,No
2023/09/24,09:10,0.146,0.131,0.211,0.200,0.207,0.117,0.075,north-northwest,5.3,No
2023/09/24,09:20,0.144,0.131,0.213,0.201,0.206,0.117,0.075,north,4.2,No
2023/09/24,09:30,0.144,0.130,0.213,0.201,0.207,0.118,0.075,north-northwest,5.8,No
2023/09/24,09:40,0.145,0.131,0.210,0.199,0.207,0.116,0.075,north-northwest,5.9,No
2023/09/24,09:50,0.145,0.131,0.210,0.200,0.206,0.117,0.075,north-northwest,6.2,No
2023/09/24,10:00,0.145,0.129,0.213,0.198,0.206,0.117,0.075,north-northwest,6.6,No
2023/09/24,10:10,0.145,0.131,0.213,0.199,0.206,0.117,0.075,north-northwest,5.6,No
2023/09/24,10:20,0.144,0.130,0.212,0.201,0.208,0.118,0.075,north-northeast,5.2,No
2023/09/24,10:30,0.145,0.129,0.212,0.202,0.209,0.117,0.075,north,5.7,No
2023/09/24,10:40,0.144,0.130,0.210,0.201,0.207,0.118,0.075,north,5.1,No
2023/09/24,10:50,0.144,0.129,0.211,0.201,0.206,0.118,0.075,north,6.3,No
2023/09/24,11:00,0.145,0.129,0.212,0.201,0.206,0.118,0.075,north,6.5,No
2023/09/24,11:10,0.144,0.129,0.212,0.200,0.205,0.118,0.075,north,6.3,No
2023/09/24,11:20,0.146,0.129,0.213,0.199,0.206,0.118,0.075,north,6.3,No
2023/09/24,11:30,0.144,0.130,0.211,0.201,0.206,0.118,0.075,north,5.4,No
2023/09/24,11:40,0.145,0.131,0.212,0.200,0.206,0.117,0.075,north,5.6,No
2023/09/24,11:50,0.145,0.131,0.213,0.199,0.207,0.118,0.075,north,5.5,No
2023/09/24,12:00,0.145,0.131,0.213,0.201,0.206,0.118,0.075,north,5.9,Yes
2023/09/24,12:10,0.147,0.131,0.213,0.200,0.206,0.118,0.076,north-northeast,5.5,Yes
2023/09/24,12:20,0.146,0.131,0.214,0.200,0.210,0.118,0.075,northeast,4.9,No
2023/09/24,12:30,0.144,0.131,0.216,0.204,0.210,0.119,0.076,northeast,3.0,No
2023/09/24,12:40,0.147,0.131,0.213,0.203,0.208,0.118,0.076,north-northeast,5.2,Yes
2023/09/24,12:50,0.148,0.130,0.214,0.202,0.208,0.117,0.076,north-northeast,4.9,Yes
2023/09/24,13:00,0.147,0.131,0.215,0.200,0.210,0.118,0.075,northeast,5.6,No
2023/09/24,13:10,0.146,0.131,0.214,0.204,0.210,0.118,0.076,north-northeast,6.6,No
2023/09/24,13:20,0.147,0.130,0.212,0.202,0.208,0.119,0.076,northeast,5.4,No
2023/09/24,13:30,0.147,0.129,0.212,0.201,0.206,0.118,0.075,northeast,5.6,No
2023/09/24,13:40,0.147,0.130,0.215,0.200,0.209,0.117,0.075,northeast,5.9,No
2023/09/24,13:50,0.145,0.131,0.215,0.200,0.209,0.118,0.075,northeast,5.3,No
2023/09/24,14:00,0.146,0.131,0.212,0.204,0.208,0.118,0.076,north-northeast,4.5,No
2023/09/24,14:10,0.148,0.131,0.212,0.203,0.207,0.118,0.076,northeast,5.0,No
2023/09/24,14:20,0.146,0.129,0.213,0.202,0.206,0.118,0.076,northeast,5.8,No
2023/09/24,14:30,0.146,0.130,0.214,0.201,0.208,0.118,0.075,north-northeast,6.0,No
2023/09/24,14:40,0.145,0.131,0.214,0.200,0.210,0.119,0.076,northeast,4.3,No
2023/09/24,14:50,0.145,0.131,0.214,0.203,0.209,0.118,0.076,northeast,4.6,No
2023/09/24,15:00,0.144,0.130,0.212,0.204,0.206,0.118,0.075,north-northeast,6.7,No
2023/09/24,15:10,0.147,0.129,0.215,0.201,0.209,0.117,0.075,northeast,6.8,No
2023/09/24,15:20,0.147,0.130,0.214,0.202,0.210,0.117,0.075,northeast,5.4,No
2023/09/24,15:30,0.145,0.131,0.213,0.204,0.208,0.117,0.076,north-northeast,6.1,No
2023/09/24,15:40,0.145,0.130,0.215,0.201,0.208,0.118,0.075,north-northeast,5.0,No
2023/09/24,15:50,0.147,0.130,0.214,0.203,0.209,0.118,0.075,north-northeast,5.2,No
2023/09/24,16:00,0.147,0.131,0.216,0.203,0.210,0.118,0.075,northeast,4.3,No
2023/09/24,16:10,0.146,0.130,0.215,0.201,0.207,0.118,0.075,northeast,4.3,No
2023/09/24,16:20,0.148,0.132,0.214,0.204,0.209,0.117,0.076,northeast,3.8,No
2023/09/24,16:30,0.147,0.130,0.216,0.202,0.209,0.118,0.076,north-northeast,3.4,No
2023/09/24,16:40,0.145,0.130,0.215,0.201,0.206,0.118,0.076,north-northeast,3.9,No
2023/09/24,16:50,0.148,0.132,0.214,0.205,0.210,0.118,0.075,northeast,4.5,No
2023/09/24,17:00,0.146,0.131,0.214,0.202,0.210,0.118,0.075,north-northeast,4.3,No
2023/09/24,17:10,0.146,0.131,0.213,0.204,0.208,0.117,0.075,northeast,4.6,No
2023/09/24,17:20,0.146,0.131,0.215,0.202,0.210,0.117,0.076,northeast,4.3,No
2023/09/24,17:30,0.145,0.131,0.214,0.202,0.209,0.119,0.075,northeast,4.1,No
2023/09/24,17:40,0.147,0.132,0.215,0.204,0.209,0.118,0.075,northeast,4.1,No
2023/09/24,17:50,0.147,0.131,0.213,0.202,0.209,0.118,0.075,northeast,4.4,No
2023/09/24,18:00,0.147,0.131,0.215,0.204,0.208,0.118,0.076,north-northeast,3.7,No
2023/09/24,18:10,0.146,0.131,0.216,0.203,0.210,0.118,0.075,north-northeast,3.8,No
2023/09/24,18:20,0.147,0.131,0.214,0.202,0.210,0.119,0.075,northeast,3.4,No
2023/09/24,18:30,0.146,0.130,0.214,0.203,0.209,0.118,0.076,northeast,3.5,No
2023/09/24,18:40,0.147,0.131,0.214,0.203,0.210,0.117,0.075,north-northeast,2.1,No
2023/09/24,18:50,0.146,0.131,0.215,0.204,0.209,0.118,0.076,north,2.3,No
2023/09/24,19:00,0.147,0.131,0.215,0.201,0.210,0.118,0.076,north,2.6,No
2023/09/24,19:10,0.146,0.131,0.215,0.203,0.209,0.118,0.075,north,2.9,No
2023/09/24,19:20,0.147,0.131,0.214,0.202,0.209,0.117,0.076,north,3.3,No
2023/09/24,19:30,0.147,0.131,0.215,0.204,0.209,0.118,0.075,north-northwest,3.4,No
2023/09/24,19:40,0.146,0.131,0.214,0.202,0.208,0.117,0.076,north,3.4,No
2023/09/24,19:50,0.147,0.131,0.215,0.204,0.211,0.119,0.074,north-northeast,3.1,No
2023/09/24,20:00,0.146,0.131,0.214,0.201,0.208,0.118,0.076,north,3.4,No
2023/09/24,20:10,0.148,0.132,0.216,0.204,0.210,0.118,0.076,north-northwest,4.3,No
2023/09/24,20:20,0.146,0.131,0.214,0.203,0.207,0.119,0.075,north-northwest,3.8,No
2023/09/24,20:30,0.147,0.132,0.215,0.203,0.210,0.118,0.076,north,4.6,No
2023/09/24,20:40,0.146,0.132,0.214,0.204,0.209,0.118,0.076,north,4.2,No
2023/09/24,20:50,0.147,0.130,0.215,0.202,0.210,0.118,0.076,north-northwest,4.0,No
2023/09/24,21:00,0.146,0.131,0.215,0.204,0.209,0.119,0.075,north-northwest,3.3,No
2023/09/24,21:10,0.147,0.132,0.216,0.203,0.209,0.118,0.077,north-northwest,4.2,No
2023/09/24,21:20,0.146,0.131,0.215,0.202,0.209,0.119,0.075,north-northwest,4.3,No
2023/09/24,21:30,0.148,0.131,0.215,0.203,0.209,0.118,0.076,north-northwest,3.9,No
2023/09/24,21:40,0.147,0.130,0.214,0.204,0.211,0.119,0.077,north-northwest,4.2,No
2023/09/24,21:50,0.147,0.132,0.214,0.202,0.208,0.119,0.075,north-northwest,3.8,No
2023/09/24,22:00,0.148,0.130,0.215,0.203,0.211,0.118,0.076,north-northwest,4.2,No
2023/09/24,22:10,0.146,0.132,0.215,0.202,0.208,0.119,0.076,north-northwest,4.2,No
2023/09/24,22:20,0.148,0.131,0.215,0.204,0.210,0.118,0.076,north,4.0,No
2023/09/24,22:30,0.146,0.131,0.214,0.203,0.208,0.120,0.076,north,3.8,No
2023/09/24,22:40,0.147,0.131,0.216,0.203,0.211,0.118,0.076,north-northwest,3.6,No
2023/09/24,22:50,0.146,0.131,0.215,0.203,0.208,0.118,0.076,north-northwest,3.5,No
2023/09/24,23:00,0.148,0.131,0.215,0.203,0.211,0.118,0.075,north-northwest,4.0,No
2023/09/24,23:10,0.146,0.131,0.215,0.203,0.208,0.119,0.076,north-northwest,3.9,No
2023/09/24,23:20,0.147,0.131,0.214,0.203,0.211,0.118,0.075,north-northwest,4.0,No
2023/09/24,23:30,0.146,0.131,0.215,0.203,0.207,0.118,0.076,north-northwest,4.1,No
2023/09/24,23:40,0.147,0.130,0.215,0.203,0.210,0.118,0.076,north-northwest,4.1,No
2023/09/24,23:50,0.147,0.132,0.216,0.204,0.208,0.119,0.075,north-northwest,4.4,No
